Location: Ajisawe
(8.4333°N, 4.3833°E)
Time: 23:42:57
(UTC+00:00)

S-56A Canister/Altair - Pass Details

Date: 24 April 2021
Orbit: 631 x 2501 km, 38.9° (Epoch: 15 May)

Event Time Altitude Azimuth Distance (km) Brightness Sun altitude
Rises 04:08:37 0° 328° (NNW) 2,954 10.4 -20.1°
Reaches altitude 10° 04:11:17 10° 343° (NNW) 1,998 9.7 -19.5°
Maximum altitude 04:14:54 24° 38° (NE) 1,317 9.3 -18.6°
Drops below altitude 10° 04:18:46 10° 93° (E) 2,158 10.9 -17.7°
Sets 04:21:46 0° 107° (ESE) 3,252 11.7 -17.0°
